TimeEDT,TemperatureF,Dew PointF,Humidity,Sea Level PressureIn,VisibilityMPH,Wind Direction,Wind SpeedMPH,Gust SpeedMPH,PrecipitationIn,Events,Conditions,WindDirDegrees,DateUTC
12:04 AM,41.0,35.6,81,29.87,6.0,West,8.1,17.3,0.01,Rain,Light Rain,270,2013-05-26 04:04:00
12:52 AM,39.9,36.0,86,29.87,6.0,West,4.6,-,0.04,Rain,Light Rain,280,2013-05-26 04:52:00
1:32 AM,39.2,35.6,87,29.85,5.0,West,10.4,19.6,0.06,Rain,Light Rain,280,2013-05-26 05:32:00
1:49 AM,39.2,33.8,81,29.85,7.0,Variable,6.9,-,0.07,Rain,Light Rain,0,2013-05-26 05:49:00
1:52 AM,39.9,35.1,83,29.86,8.0,West,8.1,-,0.07,Rain,Light Rain,260,2013-05-26 05:52:00
2:52 AM,42.1,35.1,76,29.85,10.0,West,15.0,28.8,0.01,Rain,Light Rain,260,2013-05-26 06:52:00
3:52 AM,43.0,35.1,74,29.84,10.0,West,9.2,-,0.00,,Overcast,260,2013-05-26 07:52:00
4:52 AM,43.0,34.0,71,29.84,10.0,Variable,5.8,16.1,N/A,,Overcast,0,2013-05-26 08:52:00
5:52 AM,44.1,35.1,71,29.86,10.0,West,10.4,20.7,N/A,,Overcast,270,2013-05-26 09:52:00
6:52 AM,44.1,34.0,68,29.88,10.0,West,6.9,21.9,N/A,,Overcast,260,2013-05-26 10:52:00
7:52 AM,45.0,36.0,71,29.90,10.0,West,9.2,-,N/A,,Overcast,260,2013-05-26 11:52:00
8:52 AM,45.0,37.0,74,29.92,7.0,West,8.1,-,0.00,Rain,Light Rain,270,2013-05-26 12:52:00
9:52 AM,48.0,37.9,68,29.93,10.0,Variable,4.6,-,0.01,,Overcast,0,2013-05-26 13:52:00
10:02 AM,48.2,37.4,66,29.91,10.0,West,12.7,18.4,N/A,,Overcast,260,2013-05-26 14:02:00
10:16 AM,50.0,35.6,58,29.91,10.0,West,8.1,21.9,0.00,Rain,Light Rain,280,2013-05-26 14:16:00
10:52 AM,46.9,39.0,74,29.94,10.0,Variable,4.6,-,0.02,Rain,Light Rain,0,2013-05-26 14:52:00
11:52 AM,48.0,37.9,68,29.95,8.0,NW,9.2,-,0.00,Rain,Light Rain,320,2013-05-26 15:52:00
12:52 PM,53.1,37.9,57,29.96,10.0,NNW,8.1,-,0.00,,Mostly Cloudy,340,2013-05-26 16:52:00
1:52 PM,50.0,37.9,63,29.98,10.0,Calm,Calm,-,0.00,Rain,Light Rain,0,2013-05-26 17:52:00
2:50 PM,50.0,37.4,62,29.97,10.0,West,9.2,20.7,0.00,Rain,Light Rain,280,2013-05-26 18:50:00
2:52 PM,50.0,37.9,63,29.99,10.0,West,10.4,20.7,0.00,Rain,Light Rain,280,2013-05-26 18:52:00
2:59 PM,50.0,37.4,62,29.98,10.0,West,11.5,18.4,0.00,Rain,Light Rain,260,2013-05-26 18:59:00
3:20 PM,48.2,39.2,71,30.00,9.0,NNW,8.1,-,0.01,Rain,Light Rain,340,2013-05-26 19:20:00
3:31 PM,48.2,39.2,71,30.01,10.0,North,4.6,-,0.01,Rain,Light Rain,350,2013-05-26 19:31:00
3:52 PM,48.9,39.9,71,30.03,10.0,West,3.5,-,0.01,,Overcast,270,2013-05-26 19:52:00
4:52 PM,48.9,39.0,69,30.06,9.0,West,6.9,-,0.00,Rain,Light Rain,270,2013-05-26 20:52:00
5:52 PM,46.9,41.0,80,30.08,10.0,West,6.9,-,0.02,Rain,Light Rain,270,2013-05-26 21:52:00
6:52 PM,48.9,39.9,71,30.10,10.0,West,4.6,-,0.00,,Mostly Cloudy,260,2013-05-26 22:52:00
7:52 PM,48.0,37.9,68,30.11,10.0,Variable,3.5,-,N/A,,Mostly Cloudy,0,2013-05-26 23:52:00
8:52 PM,44.1,39.0,82,30.11,10.0,Calm,Calm,-,N/A,,Partly Cloudy,0,2013-05-27 00:52:00
9:25 PM,42.8,37.4,81,30.10,1.5,Calm,Calm,-,N/A,,Partly Cloudy,0,2013-05-27 01:25:00
9:34 PM,41.0,37.4,87,30.10,4.0,Calm,Calm,-,N/A,,Clear,0,2013-05-27 01:34:00
9:42 PM,41.0,35.6,81,30.10,4.0,Calm,Calm,-,N/A,,Haze,0,2013-05-27 01:42:00
9:44 PM,41.0,37.4,87,30.11,1.8,Calm,Calm,-,N/A,,Scattered Clouds,0,2013-05-27 01:44:00
9:50 PM,41.0,37.4,87,30.11,0.8,Calm,Calm,-,N/A,,Mist,0,2013-05-27 01:50:00
9:52 PM,39.9,37.0,89,30.12,0.8,Calm,Calm,-,N/A,,Mist,0,2013-05-27 01:52:00
10:00 PM,39.2,37.4,93,30.11,1.2,Calm,Calm,-,N/A,,Mostly Cloudy,0,2013-05-27 02:00:00
10:10 PM,39.2,37.4,93,30.11,0.2,Calm,Calm,-,N/A,Fog,Fog,0,2013-05-27 02:10:00
10:22 PM,39.2,35.6,87,30.12,0.5,Calm,Calm,-,N/A,Fog,Fog,0,2013-05-27 02:22:00
10:52 PM,39.0,36.0,89,30.14,0.5,Calm,Calm,-,N/A,Fog,Fog,0,2013-05-27 02:52:00
11:19 PM,39.2,37.4,93,30.13,0.2,Calm,Calm,-,N/A,Fog,Fog,0,2013-05-27 03:19:00
11:29 PM,39.2,37.4,93,30.13,0.8,Calm,Calm,-,N/A,,Mist,0,2013-05-27 03:29:00
11:52 PM,39.9,37.0,89,30.15,0.5,Calm,Calm,-,N/A,Fog,Fog,0,2013-05-27 03:52:00